Wind_Speed
10 10 10 10 11 10 10 10 10 10 11 10 10 10 10 10 10 9 10 9 8 8 8 8 8 8 7 7 7 6 5 5 5 6 5 5 5 5 6 6 5 6 6
8 9 9 9 10 10 9 9 10 10 10 10 10 9 10 10 10 9 9 9 8 8 8 8 8 8 7 8 7 6 5 5 5 5 6 6 6 6 6 6 6 6 6
8 7 8 8 9 9 9 9 9 9 9 10 10 9 9 9 10 10 8 8 8 8 8 8 9 8 8 8 8 7 7 6 6 6 6 7 7 7 7 8 7 7 7
7 7 7 7 8 8 8 8 8 8 8 8 9 8 8 9 9 10 9 8 8 8 8 8 9 8 8 9 9 8 8 8 7 8 8 8 8 9 9 8 8 9 9
6 7 7 7 7 8 8 8 8 8 7 7 7 8 8 8 9 9 9 9 8 8 8 8 8 8 8 9 10 10 10 9 9 9 9 9 9 10 9 9 10 10 10
7 7 7 7 7 7 8 8 8 7 7 7 6 7 7 8 8 9 9 9 9 9 9 8 9 9 9 10 11 11 11 10 10 10 10 10 10 10 9 10 10 11 11
8 7 6 7 7 7 8 8 7 7 7 7 7 7 7 8 9 9 10 10 10 9 10 10 10 9 9 10 11 11 11 11 11 11 11 11 11 11 10 10 11 11 12
9 7 7 7 7 7 7 7 8 8 7 7 7 7 7 8 9 9 10 10 10 11 11 11 10 10 10 11 11 12 12 11 11 11 11 11 12 12 12 11 12 12 13
8 7 7 7 8 8 8 8 9 8 8 7 7 7 7 8 9 9 10 11 10 11 11 11 11 10 10 11 12 12 13 12 12 12 12 13 13 13 13 13 13 14 14
9 8 7 7 9 9 9 9 10 9 9 8 8 8 8 9 10 11 11 11 11 12 12 12 11 11 11 12 13 13 14 14 13 13 13 13 14 14 14 15 15 15 15
11 10 9 9 10 11 10 10 10 10 10 10 10 10 10 11 11 12 12 12 13 13 13 12 12 13 13 14 15 15 15 15 15 15 15 15 15 15 16 16 16 17 17
11 12 12 12 12 11 12 12 12 12 12 12 12 12 12 12 12 12 13 14 14 14 14 15 15 15 15 16 16 16 16 16 16 16 16 16 16 17 17 18 18 19 19
13 15 14 14 14 13 13 13 14 14 15 14 14 14 14 14 14 14 15 15 16 16 17 17 17 17 17 17 17 18 17 17 17 17 17 18 18 18 19 20 20 20 21
16 16 16 16 14 15 15 15 16 17 18 17 16 17 16 16 16 17 17 17 18 18 18 18 19 19 19 19 19 20 19 19 19 19 19 19 19 20 20 20 21 22 22
17 17 17 17 16 17 17 17 18 18 19 19 19 19 19 19 19 19 19 19 20 20 20 20 20 21 21 21 22 22 22 21 21 21 21 21 22 22 22 22 22 23 23
18 19 18 19 19 19 19 19 20 20 20 20 20 20 21 22 21 21 21 21 21 21 22 22 22 22 23 24 24 24 24 23 23 23 23 23 24 24 24 24 24 24 25
20 21 21 21 21 21 21 21 21 22 22 21 22 22 22 23 23 23 23 23 23 22 23 24 24 25 25 25 26 26 25 25 25 25 25 25 24 25 25 25 25 25 25
22 23 23 23 24 24 24 24 23 24 24 24 24 24 25 25 24 24 25 25 25 25 25 25 26 26 26 26 27 27 28 27 26 26 26 25 25 26 26 26 26 26 27
23 24 24 25 26 26 26 26 26 26 26 26 26 26 26 26 26 26 26 26 26 27 27 26 26 27 27 28 29 29 29 29 28 27 27 26 26 26 27 27 27 26 26
26 27 27 27 27 28 28 28 28 28 27 27 27 27 28 27 27 27 27 27 28 27 28 28 28 28 29 29 29 30 30 30 29 28 28 28 27 27 28 27 26 25 25
28 29 29 30 29 29 29 29 29 28 28 28 28 28 28 28 28 28 28 29 29 29 30 30 30 30 30 30 30 30 31 31 30 29 28 28 28 28 28 27 27 26 25
30 30 31 31 31 31 31 30 29 29 29 29 29 29 29 29 30 30 30 31 31 31 31 31 30 31 31 31 31 30 31 30 30 30 29 29 29 29 28 28 27 26 25
31 31 32 32 32 32 32 32 31 31 30 30 30 29 29 30 31 31 31 32 32 33 32 31 31 30 30 31 31 31 31 31 31 30 30 30 30 30 29 27 27 26 26
30 31 32 32 32 32 32 33 33 32 32 31 31 31 30 30 31 31 31 31 32 32 32 32 31 30 30 30 31 31 31 31 31 30 30 30 30 29 28 27 26 26 26
32 32 32 32 31 31 32 33 33 32 32 32 31 31 31 31 31 31 32 32 32 32 32 31 31 31 31 31 31 31 31 31 30 30 30 30 29 29 28 27 26 27 27
32 31 31 30 31 31 31 32 32 31 31 32 32 32 32 31 31 31 31 31 31 32 32 33 33 33 33 33 34 34 34 33 32 31 30 29 28 28 27 27 27 27 27
Wind_Direction
37 39 40 40 39 39 40 39 39 39 39 42 43 42 39 38 37 37 37 36 37 34 32 32 26 23 18 17 18 16 13 6 354 346 345 338 325 315 309 307 304 304 304
28 33 35 35 34 34 32 31 32 33 33 34 35 37 37 36 35 32 30 31 31 28 24 25 23 18 17 15 12 8 2 354 344 337 331 325 319 316 312 309 306 305 305
20 26 30 31 29 28 27 26 27 29 30 29 29 31 31 28 29 27 22 19 19 19 21 19 17 18 13 6 356 350 348 340 333 324 320 315 313 310 312 312 308 305 305
14 16 20 23 20 21 20 20 22 22 22 22 25 24 24 24 22 18 13 9 8 8 8 6 6 6 3 358 350 343 337 334 329 322 317 315 314 311 309 309 307 303 301
8 4 6 12 11 11 11 15 17 18 18 18 21 19 16 14 13 12 9 7 8 5 360 360 359 356 354 349 346 342 338 330 324 320 317 316 314 311 306 305 304 305 302
359 354 355 1 1 359 357 2 6 5 4 9 13 12 9 8 6 6 2 2 2 2 359 354 351 349 347 346 343 340 336 332 328 322 318 314 312 310 307 305 304 304 302
348 344 348 351 347 348 350 353 357 355 352 358 360 358 357 356 358 359 356 353 354 353 349 346 344 342 340 338 336 335 331 326 325 321 318 315 313 309 305 305 304 303 302
346 342 342 343 339 343 343 344 347 346 344 344 346 343 342 344 344 342 344 343 339 338 336 335 335 334 335 335 332 333 329 323 322 320 317 314 311 308 305 304 301 300 300
341 334 334 336 337 340 338 335 336 333 328 325 327 328 331 328 326 327 330 331 328 328 326 324 323 323 327 330 330 328 327 322 318 317 314 311 307 307 306 303 301 300 298
331 324 320 326 331 332 334 333 332 326 320 317 316 317 317 316 315 315 318 319 322 324 321 317 317 317 318 321 325 323 323 320 316 313 311 308 304 302 302 300 301 302 301
322 323 316 317 322 324 326 327 326 322 317 311 309 312 311 310 309 311 312 315 317 317 318 317 316 316 316 319 320 321 321 321 316 313 309 306 302 301 301 302 302 303 303
307 312 311 309 312 315 316 314 314 316 316 310 310 312 310 309 305 304 306 309 310 313 314 315 313 313 311 311 314 317 317 317 315 311 307 302 301 300 300 300 301 301 301
301 308 309 307 307 310 309 307 308 309 311 308 305 303 301 302 301 297 299 301 302 304 305 306 308 307 306 307 308 309 312 312 311 307 305 302 300 299 298 297 297 299 299
298 302 304 304 302 304 304 305 306 306 305 305 303 299 296 294 295 295 295 295 297 300 303 303 303 303 302 303 305 306 308 308 309 306 303 303 300 299 297 295 295 296 297
293 297 299 301 297 296 299 301 303 302 302 301 299 296 292 291 290 289 291 293 294 295 297 299 301 300 299 300 301 302 303 304 304 304 303 301 301 300 297 296 296 296 297
290 292 293 297 295 296 297 298 299 299 299 298 296 294 293 293 291 289 290 292 294 293 293 294 297 297 297 299 299 300 301 300 300 300 300 300 300 299 297 296 296 296 296
288 289 291 293 294 295 297 297 298 298 297 295 294 293 291 290 290 289 289 289 290 294 293 291 292 293 295 296 297 300 299 299 299 299 298 299 300 300 299 296 295 296 296
287 288 289 290 292 293 295 297 296 296 295 294 293 291 290 289 287 287 288 287 289 291 292 292 292 292 293 294 296 299 299 298 297 296 297 298 298 297 297 297 295 295 295
284 285 288 289 291 292 292 293 293 294 293 292 292 291 289 287 286 286 286 286 288 290 291 291 291 292 291 292 294 295 297 297 297 296 295 295 296 297 296 296 296 294 294
284 287 290 290 291 292 292 292 293 293 292 291 291 291 290 287 285 284 284 284 285 287 288 289 289 291 292 291 292 293 295 297 297 296 294 293 293 294 296 294 295 293 292
283 286 288 289 290 291 292 293 292 292 291 290 290 290 288 287 285 283 283 283 284 285 286 287 288 289 291 292 292 293 294 295 297 294 292 292 293 293 294 293 293 292 290
281 283 286 287 288 289 290 290 290 290 290 290 291 289 287 285 284 283 283 283 283 284 285 286 288 290 290 291 291 292 294 296 296 294 292 292 293 294 294 292 290 289 289
281 283 285 286 285 285 286 288 288 288 289 290 289 288 287 285 284 284 283 284 283 282 283 286 288 289 290 292 293 294 294 293 294 294 293 292 292 292 292 290 288 288 288
283 284 285 285 285 285 286 288 288 288 288 289 289 286 286 286 285 284 283 284 284 283 283 285 288 289 290 290 290 292 293 292 292 293 292 291 291 291 289 289 288 289 289
283 284 285 286 287 287 287 288 288 288 288 288 289 287 285 286 287 286 285 284 284 284 286 287 287 287 288 289 290 291 291 291 291 291 292 292 292 291 289 287 287 288 289
283 285 285 285 286 287 288 288 288 288 287 287 288 287 287 286 286 286 285 285 285 285 285 286 286 286 287 288 290 291 292 291 290 291 289 288 288 289 288 286 286 287 288
Height
5916 5914 5913 5912 5910 5909 5907 5906 5904 5903 5902 5901 5900 5898 5897 5896 5894 5893 5892 5891 5890 5889 5887 5886 5885 5883 5882 5881 5880 5879 5878 5877 5876 5875 5874 5873 5872 5871 5870 5868 5867 5866 5864
5916 5915 5913 5912 5911 5909 5908 5906 5905 5904 5903 5902 5900 5899 5898 5897 5895 5894 5893 5892 5890 5889 5888 5886 5885 5884 5882 5881 5880 5879 5877 5876 5875 5874 5873 5872 5871 5869 5868 5867 5865 5864 5862
5916 5915 5914 5912 5911 5910 5908 5907 5905 5904 5903 5902 5901 5900 5899 5897 5896 5895 5893 5892 5890 5889 5888 5886 5885 5884 5882 5881 5880 5878 5877 5875 5874 5873 5872 5871 5869 5868 5866 5865 5863 5862 5860
5916 5915 5914 5912 5911 5910 5908 5907 5906 5905 5903 5902 5901 5900 5899 5898 5897 5895 5894 5892 5891 5889 5888 5886 5885 5883 5882 5881 5879 5877 5875 5874 5872 5871 5869 5868 5867 5866 5864 5863 5861 5860 5858
5916 5915 5913 5912 5911 5910 5908 5907 5906 5904 5903 5902 5901 5900 5899 5898 5897 5895 5894 5892 5891 5889 5887 5885 5884 5882 5881 5879 5877 5876 5874 5872 5870 5869 5867 5866 5864 5863 5862 5860 5859 5857 5855
5915 5914 5913 5912 5911 5910 5909 5907 5906 5904 5903 5902 5901 5900 5899 5898 5897 5895 5894 5892 5890 5889 5887 5885 5883 5881 5880 5878 5876 5874 5872 5870 5868 5866 5865 5863 5862 5861 5859 5857 5856 5854 5853
5914 5913 5912 5911 5910 5909 5908 5907 5905 5904 5903 5902 5901 5900 5899 5897 5896 5894 5893 5891 5890 5888 5886 5884 5882 5880 5878 5876 5874 5872 5870 5868 5866 5864 5862 5861 5859 5858 5856 5854 5853 5851 5850
5913 5912 5911 5910 5910 5908 5907 5906 5905 5903 5903 5902 5901 5899 5898 5896 5895 5893 5892 5890 5888 5886 5885 5883 5881 5879 5877 5875 5873 5870 5867 5865 5863 5862 5860 5858 5856 5855 5853 5851 5850 5848 5846
5911 5910 5910 5909 5908 5907 5906 5905 5903 5902 5901 5900 5899 5898 5896 5895 5893 5892 5890 5889 5887 5885 5883 5881 5879 5877 5875 5873 5870 5868 5866 5863 5861 5859 5857 5855 5853 5851 5849 5848 5846 5844 5842
5910 5909 5908 5907 5907 5906 5905 5904 5902 5901 5899 5898 5897 5895 5894 5893 5891 5890 5888 5887 5885 5883 5881 5878 5876 5874 5872 5870 5868 5865 5863 5861 5858 5856 5854 5852 5850 5848 5846 5844 5841 5839 5837
5908 5907 5906 5905 5905 5904 5903 5902 5900 5899 5897 5896 5894 5893 5891 5890 5889 5887 5885 5884 5882 5880 5878 5876 5874 5872 5870 5867 5865 5863 5860 5858 5855 5853 5851 5848 5846 5844 5842 5839 5837 5835 5833
5905 5905 5904 5903 5902 5901 5900 5899 5897 5896 5894 5893 5891 5889 5888 5887 5885 5884 5882 5881 5879 5877 5875 5873 5871 5869 5867 5864 5862 5860 5857 5854 5852 5849 5847 5844 5842 5840 5837 5835 5833 5830 5828
5902 5901 5901 5900 5899 5898 5897 5896 5894 5893 5891 5889 5887 5885 5884 5883 5881 5880 5878 5877 5875 5873 5871 5869 5867 5865 5863 5860 5858 5856 5853 5850 5848 5845 5843 5840 5837 5835 5832 5830 5828 5825 5823
5898 5898 5897 5896 5895 5894 5893 5892 5890 5888 5887 5885 5882 5880 5879 5878 5877 5876 5874 5872 5870 5868 5867 5865 5862 5860 5858 5856 5853 5851 5849 5846 5843 5840 5838 5835 5832 5829 5827 5824 5822 5819 5816
5895 5894 5893 5892 5891 5890 5889 5887 5886 5884 5882 5880 5879 5877 5875 5874 5872 5871 5869 5867 5865 5863 5861 5859 5857 5855 5853 5851 5848 5846 5843 5841 5838 5835 5832 5830 5827 5824 5821 5818 5816 5813 5810
5891 5890 5889 5888 5887 5886 5884 5882 5881 5879 5877 5875 5873 5872 5870 5868 5866 5865 5863 5861 5859 5858 5856 5853 5851 5849 5847 5845 5842 5840 5837 5835 5832 5829 5827 5824 5821 5818 5815 5812 5809 5806 5803
5886 5885 5884 5884 5882 5881 5879 5877 5875 5873 5871 5869 5868 5866 5864 5862 5860 5858 5857 5855 5853 5851 5849 5847 5845 5843 5840 5838 5835 5833 5830 5828 5825 5823 5820 5817 5814 5811 5808 5805 5802 5799 5796
5880 5879 5878 5878 5876 5875 5873 5871 5869 5867 5865 5863 5861 5859 5858 5856 5854 5852 5850 5849 5847 5845 5843 5840 5838 5836 5834 5831 5829 5826 5823 5821 5818 5816 5813 5810 5807 5804 5801 5798 5795 5792 5789
5874 5873 5872 5871 5870 5868 5867 5865 5862 5860 5858 5857 5855 5853 5851 5848 5846 5845 5843 5841 5840 5838 5835 5833 5831 5829 5826 5824 5821 5819 5816 5813 5811 5808 5805 5803 5800 5797 5794 5791 5788 5785 5781
5868 5866 5865 5864 5862 5861 5859 5857 5855 5853 5851 5849 5847 5845 5843 5841 5839 5837 5835 5834 5832 5830 5828 5825 5823 5821 5819 5816 5814 5811 5808 5805 5802 5800 5797 5794 5792 5789 5785 5782 5779 5777 5774
5860 5859 5858 5856 5855 5853 5852 5850 5848 5846 5844 5841 5839 5837 5835 5833 5831 5829 5827 5826 5823 5821 5819 5817 5815 5812 5810 5808 5805 5803 5800 5797 5794 5791 5788 5786 5783 5780 5777 5774 5771 5769 5766
5853 5851 5850 5848 5847 5845 5843 5841 5840 5837 5835 5833 5831 5829 5827 5824 5822 5821 5819 5817 5815 5812 5810 5808 5806 5804 5801 5799 5796 5794 5791 5789 5786 5783 5780 5777 5774 5771 5768 5765 5762 5760 5758
5844 5843 5841 5840 5838 5836 5834 5832 5830 5828 5826 5824 5822 5820 5818 5815 5813 5811 5809 5807 5805 5803 5801 5799 5797 5795 5792 5790 5787 5785 5782 5779 5777 5774 5771 5768 5765 5762 5760 5757 5754 5752 5750
5836 5835 5833 5830 5828 5826 5824 5822 5820 5818 5817 5815 5813 5811 5809 5807 5804 5802 5800 5797 5795 5793 5791 5790 5788 5786 5784 5780 5777 5775 5773 5770 5767 5765 5762 5759 5756 5753 5751 5749 5747 5745 5742
5827 5826 5824 5821 5819 5817 5815 5813 5811 5809 5807 5806 5804 5802 5799 5797 5795 5793 5791 5788 5786 5784 5782 5781 5779 5777 5775 5772 5769 5766 5763 5761 5758 5756 5753 5750 5747 5745 5743 5741 5739 5737 5735
5819 5817 5815 5813 5811 5809 5807 5804 5802 5800 5798 5796 5794 5792 5790 5788 5786 5783 5781 5779 5777 5775 5773 5771 5769 5767 5765 5762 5760 5757 5754 5751 5749 5746 5743 5741 5739 5737 5735 5733 5731 5729 5727